Anchor Point, AK (99556)

4:11 AM AKDT on March 27, 2017 (GMT -0800)
Wilderness Greenhouse | | Change Station

Elev 335 ft 59.72 °N, 151.72 °W | Updated 31 seconds ago

Partly Cloudy
Partly Cloudy
7.6 °F
Feels Like 8 °F
N
0.0
Wind Variable Wind from SW

Today
High -- | Low -- °F
--% Chance of Precip.
Yesterday
High -- | Low -- °F
Precip. -- in
Pressure 29.52 in
Visibility 10.0 miles
Clouds Overcast 10000 ft
Windchill 8 °F
Dew Point 5 °F
Humidity 88%
Rainfall 0.00 in
Snow Depth Not available.
7:46 AM 8:40 PM
Waning Crescent, 1% visible
METAR PAHO 271153Z AUTO 00000KT 10SM OVC100 M04/M11 A2951 RMK AO2 SLP995 T10441111 11006 21044 58012 TSNO $
Pressure 29.52 in
Visibility 10.0 miles
Clouds Overcast 10000 ft
Windchill 8 °F
Dew Point 5 °F
Humidity 88%
Rainfall 0.00 in
Snow Depth Not available.
7:46 AM 8:40 PM
Waning Crescent, 1% visible
METAR PAHO 271153Z AUTO 00000KT 10SM OVC100 M04/M11 A2951 RMK AO2 SLP995 T10441111 11006 21044 58012 TSNO $

Get Severe Weather Alerts

Thanks for signing up!

Be on the lookout for a verification email in your inbox.

You'll start receiving the daily forecast at 8 AM.

×

10-Day Weather Forecast

Almanac

Astronomy

Mar. 27, 2017 Rise Set
Actual Time
Civil Twilight
Nautical Twilight
Astronomical Twilight
Moon
Length of Visible Light
Length of Day
Tomorrow will be .
, % of the Moon is Illuminated

Today's Extremes

State Highs State Lows

Community

WunderPhotos

Upload Photos

1,962,540 photos uploaded!

WunderBlog® & News

Nearby

Air Quality

  Air Quality AQ Index Pollutant
Not available.

Snow Depth

Station Depth Elevation

Earthquake Activity

City Distance Mag. Time & Date
Minimum magnitude displayed is 2.5.

Earthquake Activity

City Distance Mag. Time & Date
Minimum magnitude displayed is 2.5.

Coastal Water Temperatures

Place Temperature

Stations

Nearby Weather Stations

Station Location Temp. Windchill Dew Point Humidity Wind Precip. Elev Updated Type
                   

Watches & Warnings

There are currently no watches in effect.